Location: Huesca
(42.1318°N, 0.4078°W)
Time: 09:24:53
(UTC+02:00)

TIGRISAT - Pass Details

Date: 26 April 2024
Orbit: 594 x 672 km, 97.7° (Epoch: 21 May)

Event Time Altitude Azimuth Distance (km) Brightness Sun altitude
Rises 06:12:50 0° 175° (S) 2,925 ? -9.5°
Reaches altitude 10° 06:15:04 10° 179° (S) 2,008 ? -9.1°
Maximum altitude 06:19:23 61° 259° (W) 711 ? -8.4°
Drops below altitude 10° 06:23:38 10° 340° (NNW) 1,977 ? -7.7°
Sets 06:25:50 0° 344° (NNW) 2,875 ? -7.3°
